KUAIZHOU 2 (KZ-2) is no longer on orbit KUAIZHOU 2 (KZ-2) is classified as:
1 40311U 14073A 16283.50250668 .11133018 20339-5 21796-3 0 9994 2 40311 96.4644 17.0803 0010942 249.7330 110.8456 16.46543041109567